[[{"header":{"parameterUnit":"m.s-1","parameterCategory":1,"la1":30.2991,"la2":30.254,"lo1":-89.0895,"lo2":-89.0444,"dy":0.0017,"dx":0.0017,"nx":28,"ny":28,"refTime":"2024-04-06T03:00:00:Z","depth":0,"parameterNumber":2,"parameterNumberName":"U-component_of_WINDS"},"data":[0,0,0,0,0,0,0,0,0,0,0,0,0,0,0,0,0,0,0,0,0,0,0,0,0,0,0,0,0,0,0,0,0,0,0,0,0,0,0,0,0,0,0,0,0,0,0,0,0,0,0,0,0,0,0,0,0,0,0.7461,0.7461,0,0.7458,0.7458,0.7458,0.742,0.7419,0.7418,0.7417,0.7417,0.7418,0.7419,0,0,0,0,0,0,0,0,0,0,0,0,0,0.7438,0.7438,0.7461,0.7461,0.7461,0.7458,0.7458,0.7458,0.742,0.7419,0.7418,0.7417,0.7417,0.7418,0.7419,0,0,0,0,0,0,0,0,0,0,0,0,0,0.7443,0.7438,0.7461,0.7442,0.744,0.7458,0.7458,0.7458,0.7421,0.7419,0.7418,0.7416,0.7416,0.7418,0.7419,0.7456,0,0,0.7423,0.7424,0,0,0,0,0,0,0,0,0.7442,0.7444,0.7445,0.7443,0.7441,0.7438,0.745,0.7458,0.7421,0.7428,0.7417,0.7416,0.7425,0.7426,0.7429,0.7456,0.7456,0.7423,0.7424,0.7425,0.7425,0,0,0,0,0,0,0,0.7442,0.7443,0.746,0.7445,0.7443,0.7434,0.7434,0.7451,0.7435,0.7427,0.7425,0.7425,0.7424,0.7427,0.7428,0.7456,0.7423,0.7424,0.7425,0.7426,0.7516,0.7517,0,0,0,0,0,0,0.7444,0.7443,0.746,0.746,0.7438,0.7436,0.7435,0.7441,0.7435,0.7432,0.7426,0.7423,0.7426,0.7427,0.7428,0.7472,0.7425,0.7426,0.7427,0.7514,0.7516,0.7518,0,0,0,0,0,0,0.7444,0.7446,0.746,0.7451,0.7452,0.7438,0.7444,0.7441,0.7444,0.7433,0.7431,0.7432,0.7425,0.7426,0.745,0.7471,0.7427,0.7428,0.7512,0.7515,0.7517,0.7559,0,0,0,0,0,0,0.7443,0.7446,0.7459,0.7451,0.7453,0.7481,0.7446,0.7442,0.7446,0.7442,0.7438,0.7436,0.7424,0.7448,0.7451,0.7472,0.7429,0.751,0.7513,0.7516,0.7555,0.7562,0.7568,0,0,0,0,0,0.7442,0.7471,0.746,0.7462,0.7468,0.7482,0.7483,0.7467,0.7448,0.7462,0.7455,0.7436,0.7469,0.7451,0.7454,0.7476,0.7509,0.7513,0.7516,0.7553,0.7561,0.7568,0,0,0,0,0,0,0.7482,0.747,0.7457,0.7484,0.7484,0.7475,0.7492,0.7476,0.7482,0.7478,0.7459,0.7459,0.7485,0.7483,0.7463,0.7512,0.7486,0.749,0.7512,0.752,0.7527,0.7526,0.743,0,0,0,0,0,0.7494,0.7505,0.7494,0.7519,0.752,0.7506,0.7511,0.7499,0.7499,0.7499,0.7494,0.7495,0.7506,0.7513,0.7522,0.7556,0.7555,0.7572,0.7579,0.7584,0.7588,0.7606,0.7614,0.753,0.753,0.7529,0,0,0.7519,0.7513,0.7521,0.7527,0.7525,0.7538,0.7506,0.7521,0.753,0.7502,0.7523,0.752,0.752,0.7549,0.7561,0.7548,0.7611,0.7589,0.7593,0.7594,0.7611,0.7619,0.7626,0.7532,0.7532,0.7531,0,0,0.757,0.7567,0.7587,0.7587,0.7585,0.7576,0.7581,0.7575,0.7572,0.7593,0.7572,0.7584,0.7602,0.7603,0.7606,0.766,0.7643,0.7664,0.7697,0.7715,0.7722,0.7728,0.7747,0.7754,0.7668,0.7668,0.7668,0,0.7601,0.7618,0.76,0.7616,0.762,0.7594,0.7615,0.7616,0.7618,0.7622,0.7607,0.7629,0.7628,0.7657,0.767,0.7674,0.768,0.7664,0.7722,0.7728,0.7733,0.7751,0.7758,0.7671,0.767,0.767,0.767,0,0.7656,0.7669,0.7686,0.7687,0.7693,0.7712,0.7698,0.7707,0.7695,0.7688,0.7711,0.7708,0.7716,0.7723,0.7711,0.7751,0.7742,0.7725,0.7698,0.7744,0.776,0.7767,0.7674,0.7673,0.7672,0.7672,0,0,0.773,0.7723,0.773,0.773,0.7728,0.7737,0.7756,0.7764,0.7771,0.7774,0.779,0.7807,0.7791,0.7794,0.7783,0.7799,0.7843,0.778,0.778,0.7792,0.7887,0.7899,0.7907,0.7832,0.7833,0.7834,0.7886,0,0.778,0.7809,0.7795,0.7826,0.7838,0.7815,0.7831,0.7832,0.7827,0.7837,0.7832,0.7844,0.7822,0.7824,0.7839,0.7834,0.7861,0.783,0.7847,0.7848,0.7847,0.7916,0.7929,0.7978,0.7893,0.7894,0.7895,0,0.784,0.7845,0.7878,0.7874,0.7878,0.7893,0.7899,0.7909,0.791,0.7905,0.791,0.7896,0.7915,0.7889,0.7916,0.7896,0.7902,0.7901,0.7903,0.7903,0.7873,0.7918,0.7993,0.8,0.7905,0.7904,0.7903,0,0.7891,0.7906,0.7927,0.7929,0.7925,0.7936,0.7935,0.7934,0.794,0.7947,0.795,0.7959,0.7964,0.7972,0.7961,0.7943,0.799,0.7963,0.7987,0.7988,0.7997,0.7997,0.8074,0.8003,0.8003,0.8003,0.8002,0,0.7947,0.7968,0.795,0.7963,0.7987,0.7971,0.7995,0.7992,0.7992,0.8005,0.7987,0.8,0.7985,0.7997,0.7989,0.8013,0.8016,0.8013,0.8011,0.8014,0.8015,0.8017,0.8013,0.8004,0.8004,0.8004,0.8003,0,0.8007,0.7996,0.8018,0.8012,0.8011,0.8029,0.8025,0.8038,0.8032,0.8049,0.8052,0.8043,0.8056,0.8047,0.806,0.8055,0.8086,0.808,0.8086,0.8083,0.8108,0.8106,0.819,0.82,0.8123,0.8123,0.8124,0,0.8042,0.8058,0.8054,0.8061,0.8061,0.8073,0.8079,0.8065,0.8072,0.8075,0.8088,0.81,0.8108,0.8132,0.8127,0.8138,0.8131,0.816,0.8132,0.8136,0.8131,0.813,0.8131,0.8165,0.8166,0.8166,0.8167,0,0.8107,0.8101,0.811,0.8117,0.8124,0.813,0.8133,0.8141,0.8127,0.8136,0.8149,0.8156,0.817,0.8182,0.8191,0.8192,0.8178,0.8176,0.8182,0.8185,0.8188,0.8187,0.81,0.8174,0.8173,0.8172,0.8172,0.8172,0.8156,0.8169,0.8168,0.8179,0.818,0.8184,0.8196,0.8192,0.8202,0.8212,0.8204,0.822,0.8222,0.8233,0.8236,0.8249,0.8237,0.8246,0.8248,0.825,0.8254,0.8187,0.8251,0.825,0.825,0.825,0.825,0,0.8219,0.8218,0.8228,0.8234,0.8242,0.8228,0.8232,0.824,0.8254,0.8257,0.8266,0.8282,0.8294,0.8291,0.8303,0.8314,0.8308,0.8318,0.8316,0.8317,0.8264,0.8257,0.8322,0.8322,0.8322,0.8322,0.8322,0.8322,0.8253,0.8274,0.8269,0.8291,0.829,0.8305,0.8308,0.8313,0.8315,0.8333,0.8343,0.8341,0.8342,0.8354,0.8365,0.8364,0.8369,0.8381,0.8377,0.8328,0.832,0.8313,0.8307,0.8382,0.8382,0.8429,0.843,0.843]},{"header":{"parameterUnit":"m.s-1","parameterCategory":1,"la1":30.2991,"la2":30.254,"lo1":-89.0895,"lo2":-89.0444,"dy":0.0017,"dx":0.0017,"nx":28,"ny":28,"refTime":"2024-04-06T03:00:00:Z","depth":0,"parameterNumber":3,"parameterNumberName":"V-component_of_WINDS"},"data":[0,0,0,0,0,0,0,0,0,0,0,0,0,0,0,0,0,0,0,0,0,0,0,0,0,0,0,0,0,0,0,0,0,0,0,0,0,0,0,0,0,0,0,0,0,0,0,0,0,0,0,0,0,0,0,0,0,0,1.2675,1.2677,0,1.2851,1.2853,1.2855,1.2837,1.2834,1.2832,1.2829,1.3012,1.3019,1.3026,0,0,0,0,0,0,0,0,0,0,0,0,0,1.2325,1.2331,1.2675,1.2677,1.2679,1.285,1.2853,1.2855,1.2838,1.2834,1.2831,1.2828,1.3009,1.3018,1.3027,0,0,0,0,0,0,0,0,0,0,0,0,0,1.2486,1.2333,1.2675,1.2691,1.2694,1.285,1.2853,1.2856,1.2838,1.2834,1.283,1.2826,1.3006,1.3017,1.3028,1.3179,0,0,1.3062,1.3067,0,0,0,0,0,0,0,0,1.2477,1.2499,1.2687,1.269,1.2694,1.2818,1.2796,1.2964,1.2839,1.2784,1.2829,1.2824,1.2951,1.2966,1.3008,1.3188,1.3196,1.3063,1.307,1.3075,1.3078,0,0,0,0,0,0,0,1.2466,1.2491,1.2744,1.2689,1.2694,1.269,1.2708,1.2828,1.2888,1.2788,1.2787,1.2808,1.2952,1.2997,1.3012,1.3198,1.3063,1.3073,1.308,1.3084,1.3507,1.3511,0,0,0,0,0,0,1.2451,1.2482,1.2739,1.275,1.2573,1.2699,1.272,1.2782,1.2887,1.2899,1.2812,1.2807,1.2981,1.2999,1.3019,1.32,1.3075,1.3085,1.3091,1.3502,1.3508,1.3513,0,0,0,0,0,0,1.2443,1.2474,1.2732,1.2616,1.2648,1.271,1.278,1.2788,1.2833,1.2905,1.2915,1.2847,1.2978,1.3003,1.3138,1.3207,1.309,1.31,1.3497,1.3504,1.351,1.3566,0,0,0,0,0,0,1.2433,1.2471,1.2529,1.2617,1.2655,1.2849,1.2784,1.2794,1.2852,1.2848,1.2941,1.2952,1.2977,1.3122,1.3149,1.322,1.3109,1.3491,1.35,1.3508,1.3559,1.3574,1.3588,0,0,0,0,0,1.2421,1.254,1.2532,1.2564,1.2729,1.2853,1.2874,1.29,1.2858,1.2917,1.2962,1.2949,1.3194,1.3136,1.3167,1.3242,1.3487,1.3498,1.3508,1.3552,1.3571,1.3587,0,0,0,0,0,0,1.246,1.2551,1.2545,1.2695,1.2766,1.285,1.2925,1.2919,1.3005,1.2997,1.3025,1.3046,1.3182,1.3225,1.3159,1.3391,1.3335,1.3352,1.3358,1.3377,1.3391,1.3378,1.3118,0,0,0,0,0,1.2486,1.2579,1.2654,1.278,1.2815,1.2864,1.2919,1.2932,1.3007,1.3037,1.3092,1.3166,1.3259,1.3321,1.3411,1.3564,1.3583,1.3631,1.3645,1.3656,1.3671,1.3753,1.3774,1.3547,1.3546,1.3546,0,0,1.2541,1.2602,1.266,1.2789,1.2845,1.2941,1.289,1.2993,1.3064,1.3053,1.3184,1.3227,1.331,1.3455,1.3521,1.3495,1.3737,1.3669,1.3678,1.3687,1.3765,1.3787,1.3806,1.3553,1.3552,1.3551,0,0,1.269,1.2746,1.2856,1.2913,1.2998,1.3029,1.3055,1.3139,1.3166,1.3297,1.329,1.3375,1.3536,1.3595,1.3646,1.3813,1.3803,1.3841,1.3917,1.3996,1.4014,1.403,1.4088,1.4109,1.3855,1.3855,1.3855,0,1.2749,1.2891,1.2914,1.3017,1.3073,1.3066,1.3176,1.3231,1.3342,1.338,1.3349,1.3548,1.3604,1.3761,1.3801,1.3843,1.3873,1.3831,1.401,1.4026,1.4041,1.4097,1.4119,1.3859,1.3859,1.3858,1.3858,0,1.2958,1.3057,1.3135,1.324,1.3305,1.3412,1.3449,1.3512,1.3518,1.3552,1.3684,1.3751,1.3853,1.389,1.3899,1.4048,1.4029,1.4003,1.3947,1.4066,1.4119,1.4141,1.3865,1.3864,1.3862,1.3861,0,0,1.3139,1.3252,1.3281,1.3327,1.3418,1.3495,1.3601,1.3699,1.3752,1.3827,1.3916,1.405,1.4026,1.4083,1.4098,1.4167,1.4293,1.4133,1.4135,1.4159,1.4459,1.4477,1.4502,1.4286,1.429,1.4294,1.4451,0,1.3297,1.3483,1.3504,1.367,1.376,1.3752,1.3843,1.3909,1.3943,1.4024,1.4061,1.4155,1.4117,1.4152,1.422,1.4263,1.4353,1.4252,1.4368,1.4372,1.4348,1.4529,1.455,1.4696,1.4472,1.4476,1.4478,0,1.3506,1.3585,1.3759,1.3835,1.3874,1.3956,1.4046,1.4124,1.4198,1.4217,1.4279,1.4284,1.4391,1.4329,1.4477,1.4408,1.4456,1.4484,1.449,1.4502,1.4433,1.4546,1.4743,1.4764,1.4511,1.4509,1.4506,0,1.3619,1.377,1.3892,1.3932,1.4025,1.4082,1.4123,1.4192,1.4249,1.4327,1.4364,1.4454,1.4504,1.4573,1.4601,1.4554,1.4746,1.4688,1.4765,1.4764,1.4807,1.4804,1.5014,1.4838,1.4838,1.4837,1.4837,0,1.3793,1.3899,1.3944,1.402,1.4138,1.4161,1.4277,1.4316,1.4377,1.4459,1.4458,1.4535,1.4567,1.4649,1.4671,1.4789,1.4812,1.4829,1.4834,1.483,1.4827,1.4862,1.4853,1.4843,1.4842,1.4841,1.484,0,1.394,1.3975,1.4108,1.4183,1.4204,1.4288,1.4352,1.4424,1.4455,1.4559,1.4585,1.4634,1.473,1.4764,1.4882,1.4896,1.5032,1.5029,1.5007,1.5008,1.5083,1.5075,1.5323,1.5356,1.5159,1.5161,1.5162,0,1.4049,1.413,1.4213,1.4267,1.431,1.4398,1.4455,1.4479,1.4538,1.4626,1.4688,1.4782,1.486,1.5013,1.5059,1.5148,1.5146,1.5227,1.516,1.5152,1.5146,1.5141,1.5148,1.524,1.5242,1.5243,1.5245,0,1.4237,1.4249,1.4331,1.4418,1.4485,1.4555,1.4623,1.4668,1.4702,1.4768,1.4865,1.4925,1.5043,1.5137,1.5227,1.5268,1.5262,1.5265,1.5287,1.5284,1.5267,1.5276,1.5041,1.526,1.5258,1.5257,1.5256,1.5256,1.4368,1.4439,1.4507,1.4597,1.465,1.4713,1.4784,1.4822,1.4904,1.5001,1.501,1.5115,1.5183,1.5303,1.5348,1.543,1.5407,1.544,1.5448,1.5456,1.5461,1.5254,1.5446,1.5446,1.5445,1.5445,1.5445,0,1.4555,1.4598,1.4681,1.4774,1.4845,1.4831,1.4904,1.4964,1.5056,1.5119,1.5194,1.5305,1.5395,1.5446,1.5536,1.5591,1.559,1.5614,1.561,1.5619,1.5476,1.5448,1.5613,1.5613,1.5612,1.5612,1.5612,1.5612,1.4661,1.4779,1.4799,1.4943,1.4985,1.5086,1.5129,1.5186,1.5237,1.536,1.5434,1.5466,1.5525,1.5618,1.5699,1.5712,1.5745,1.577,1.5781,1.5647,1.563,1.5613,1.5586,1.5777,1.5778,1.5917,1.5918,1.5919]}]]